RH
102 105 103 89 83 85 85 89 90 86 81 76 67 71 78 64 60 68 74 76 79 91 104 102 89 88 92 78 61 55 51 51 61 67 78 87 72 68 60 42 33 27 33 35 36 47 73 88 60 56 65 53 45 38 33 33 34 37 39 38 35 37 41 36 32 32 30 26 27 30 30 37 43 40 36 32 30 25 22 20 18 17 17 18 18 19 19 20 21 23 25 28 31 35 39 42 44
103 103 104 96 84 83 87 93 99 94 85 81 72 66 65 56 55 63 64 60 58 69 92 102 93 89 92 82 62 58 58 58 70 75 88 88 71 71 62 43 31 29 34 34 40 57 91 89 55 58 63 52 47 40 35 34 35 36 36 35 35 39 39 34 31 31 29 27 28 30 29 37 44 43 40 35 30 25 22 20 18 17 17 17 18 18 18 19 20 24 26 28 31 33 37 40 41
102 102 102 100 92 89 93 99 106 104 96 93 84 70 65 61 61 65 63 60 58 56 72 93 99 98 92 83 66 64 67 67 79 84 93 79 59 67 62 45 31 31 36 39 48 71 100 81 54 62 59 52 49 41 36 34 35 35 36 36 37 39 36 33 32 31 29 27 27 28 28 33 38 39 40 38 31 24 21 19 18 17 16 16 17 17 17 18 20 23 27 29 30 33 36 37 38
102 101 100 101 98 92 97 104 106 105 103 101 94 82 76 71 67 76 82 79 78 71 73 88 103 103 91 85 74 70 69 72 84 89 94 70 45 53 52 43 34 34 40 46 58 85 100 71 60 64 55 54 49 41 35 34 34 35 38 39 41 39 34 33 32 31 29 27 25 27 28 31 36 39 40 38 30 23 20 18 17 16 16 15 15 16 16 16 18 22 25 28 29 32 34 36 37
100 101 100 102 100 88 86 96 103 102 100 102 96 88 86 81 74 79 96 102 100 96 92 96 103 103 93 85 79 76 71 73 83 85 86 65 38 34 36 36 34 35 42 52 69 98 94 66 68 62 55 55 47 42 35 34 34 38 43 43 42 37 33 32 32 30 28 26 24 28 32 37 41 43 40 34 26 21 19 18 17 16 16 15 15 15 15 15 16 19 22 25 27 31 34 37 37
101 100 100 102 101 87 73 72 87 102 100 100 99 90 82 79 74 73 92 107 108 103 100 101 102 102 98 86 80 79 73 72 78 82 81 62 37 26 27 29 30 35 45 59 82 106 90 70 72 58 57 55 46 43 35 35 36 42 46 44 41 35 33 30 30 28 28 27 27 35 42 46 46 41 35 28 22 20 19 18 17 16 16 15 15 14 14 14 14 17 21 23 26 30 35 40 40
102 101 100 100 101 96 82 63 65 91 102 100 100 94 80 71 65 60 74 93 102 105 101 97 98 103 103 91 82 78 71 68 71 84 84 59 36 27 29 32 34 38 50 71 93 109 95 83 74 56 59 53 46 43 36 38 38 43 45 43 39 33 31 28 28 27 29 28 32 44 50 52 46 37 30 25 21 19 18 18 17 16 16 15 14 14 13 13 13 18 24 25 25 30 40 48 46
100 102 102 101 101 101 99 85 69 79 97 102 100 97 88 82 72 54 52 62 71 83 79 63 65 81 91 87 80 77 72 63 58 75 83 61 36 30 38 39 40 48 67 88 98 107 104 95 74 56 58 52 47 43 38 39 39 43 44 42 36 31 29 27 28 31 34 31 40 52 56 57 47 37 30 24 20 18 18 17 16 15 16 16 15 13 13 13 12 19 29 30 26 32 49 54 50
98 100 101 102 101 100 101 102 94 85 93 101 101 100 96 96 94 76 55 46 44 53 49 33 33 42 48 51 56 68 68 54 42 49 58 50 35 40 57 59 62 77 92 101 101 106 107 98 74 57 57 52 49 43 39 39 40 43 42 40 33 30 29 33 42 48 46 36 46 58 59 60 50 40 30 23 19 18 18 16 17 19 23 25 22 19 16 14 12 18 31 35 28 35 54 59 56
98 97 99 101 99 101 102 102 102 97 97 102 103 103 99 95 100 99 82 60 46 47 47 41 40 39 41 42 42 48 52 49 41 37 38 39 39 53 75 85 93 101 104 103 103 104 100 92 71 57 55 52 49 43 40 40 41 42 42 38 33 33 39 59 74 79 68 43 50 63 62 61 50 38 26 20 19 19 20 21 24 28 33 35 35 34 32 26 18 19 32 39 31 37 55 60 60
99 99 99 98 95 98 102 102 103 101 100 103 104 104 101 95 97 102 102 88 63 49 52 61 66 71 80 82 74 62 50 48 48 46 45 48 53 62 78 94 103 103 102 99 96 92 86 80 64 56 53 50 48 42 40 40 40 40 42 38 34 40 59 88 98 99 85 52 54 66 63 57 44 31 23 20 21 24 26 28 30 31 32 34 37 42 46 45 34 28 35 41 34 37 53 57 56
101 100 100 97 94 95 98 101 103 102 102 102 102 103 102 99 99 99 102 103 89 66 53 59 67 71 79 85 92 92 80 69 67 72 73 76 78 80 87 98 102 100 98 90 82 80 78 71 59 53 49 48 47 42 42 41 40 42 43 39 39 51 68 93 102 101 88 60 58 66 62 51 36 27 22 23 26 29 31 30 31 31 31 33 39 43 48 52 49 41 40 43 38 35 48 55 53
102 100 102 99 94 95 96 97 99 101 101 101 101 102 102 100 101 100 100 102 102 93 73 61 62 64 67 67 74 91 100 96 92 95 97 100 99 97 99 101 100 98 91 79 75 75 72 63 55 51 47 49 46 42 43 42 43 44 44 38 47 62 62 83 102 97 82 65 62 63 57 43 31 27 25 27 30 30 30 31 32 33 35 37 43 49 54 56 55 48 43 44 42 36 41 52 56
102 101 101 99 95 95 95 96 98 99 96 97 99 100 102 102 100 101 101 102 103 103 97 85 79 77 76 70 68 80 95 96 94 96 99 100 98 98 99 97 94 89 80 72 71 68 63 57 53 49 47 49 45 42 42 44 46 45 45 38 53 64 51 75 97 84 74 65 63 63 51 37 31 29 28 30 31 30 30 33 36 36 36 37 38 43 51 60 59 50 47 47 45 40 37 48 56
99 101 98 94 93 93 95 97 98 99 96 94 94 93 97 99 99 102 101 102 102 102 105 101 90 85 83 78 73 78 88 90 88 90 90 87 84 86 88 87 83 75 68 65 64 61 58 55 51 49 49 50 44 41 42 45 46 46 46 38 53 59 47 75 85 68 66 63 65 61 44 37 35 31 31 32 30 32 35 37 41 41 41 41 37 33 38 52 60 53 50 50 46 42 38 45 50
99 99 94 88 87 90 93 97 98 97 95 91 87 86 90 93 95 96 93 94 96 97 102 102 92 87 84 78 74 74 79 81 81 81 79 76 74 74 74 73 69 64 62 61 60 58 57 55 52 51 50 48 41 40 42 46 46 47 47 40 51 54 56 82 76 60 60 62 67 54 43 45 40 34 33 34 34 36 38 40 41 42 43 41 36 30 28 38 54 59 56 53 46 41 40 43 44
101 96 88 81 81 89 94 96 97 98 96 90 85 84 84 88 91 87 83 84 86 88 91 92 88 82 76 73 72 70 70 70 72 73 72 70 69 68 66 64 62 60 60 59 59 59 59 58 56 54 52 46 39 41 44 47 48 49 48 42 50 54 67 87 73 61 62 64 65 51 53 56 42 38 37 37 40 42 43 42 39 38 37 33 29 26 26 28 40 54 57 54 48 43 43 43 40
99 93 85 77 80 91 99 100 100 100 98 92 91 91 87 85 86 81 79 79 79 82 83 82 80 76 73 72 71 69 67 66 68 69 68 67 65 64 62 60 59 59 60 60 60 61 62 61 59 58 52 43 39 44 47 51 57 61 58 46 48 56 71 89 80 71 71 68 62 56 62 61 46 40 41 43 45 48 48 47 43 38 34 30 27 25 24 25 28 39 48 52 50 47 46 44 42
97 93 85 80 87 96 104 107 105 103 99 95 95 97 95 91 84 77 75 76 76 78 78 78 77 76 74 71 71 69 67 67 68 68 66 65 63 61 59 58 58 59 61 61 62 64 65 63 64 60 51 42 40 44 45 49 64 79 78 56 47 57 68 83 92 88 80 70 63 61 62 60 53 47 46 48 49 51 50 48 46 42 38 34 32 28 24 23 23 28 37 45 47 47 48 47 46
94 89 83 87 97 102 106 108 105 105 103 100 100 101 98 95 84 72 72 71 70 74 75 76 77 76 74 71 69 68 69 70 69 66 64 64 62 60 57 57 58 59 60 61 64 67 68 68 68 61 51 46 40 40 40 41 62 84 89 69 47 55 67 79 98 101 85 75 72 69 67 65 60 55 53 54 56 57 57 56 52 48 43 40 39 36 31 26 23 24 29 36 40 41 42 42 43
93 86 85 95 104 105 106 106 104 105 106 104 105 107 102 97 87 74 72 72 71 72 71 74 75 74 73 70 69 69 71 72 69 66 65 64 62 59 56 57 58 59 60 62 67 71 73 74 71 63 54 48 40 41 41 41 68 90 90 82 60 56 68 78 95 104 95 88 84 80 82 85 82 75 62 61 70 74 76 77 73 64 54 49 47 44 40 34 29 26 27 30 31 30 28 29 31
94 90 92 98 101 102 105 104 103 103 105 104 106 109 105 102 94 79 74 73 72 73 71 71 73 74 73 71 71 71 72 73 70 67 65 64 62 59 56 58 59 60 62 65 72 76 77 77 74 67 57 51 46 48 47 50 84 101 90 91 85 76 81 84 88 97 102 100 89 77 79 84 89 95 86 77 82 87 91 90 84 78 71 67 63 57 51 46 41 38 33 29 26 23 24 26 26
90 95 100 101 98 99 104 103 101 103 103 101 104 106 104 102 94 80 75 74 73 74 76 73 71 74 73 73 73 72 74 74 72 70 68 66 63 60 59 60 61 63 65 69 75 79 80 80 76 71 62 57 56 60 61 63 91 107 94 94 98 95 97 96 91 93 102 102 86 70 67 65 65 80 96 100 99 96 95 90 81 78 80 80 77 69 61 57 56 55 49 39 33 30 29 30 31
74 88 98 103 102 101 105 105 101 101 101 100 102 103 101 97 89 80 75 76 76 75 74 73 74 73 73 74 74 73 75 75 74 71 70 68 66 64 63 63 64 65 69 73 78 81 83 81 77 74 69 64 61 67 72 72 88 105 101 99 101 100 101 99 90 87 95 98 84 68 63 61 53 52 66 89 104 102 96 89 75 71 75 77 78 80 79 79 78 76 71 61 53 47 43 40 40
49 69 86 99 104 104 106 107 103 101 100 100 101 102 99 92 85 77 73 75 75 72 69 71 75 75 74 74 74 75 76 75 74 73 71 70 69 67 66 65 66 68 72 76 80 83 83 82 78 76 75 73 69 71 80 83 86 97 103 102 101 100 100 99 90 82 80 81 76 65 61 63 60 49 43 60 87 94 92 88 74 68 71 72 77 90 98 98 96 94 92 87 78 69 61 55 52
29 44 66 84 97 104 107 107 104 101 100 100 101 102 98 90 81 73 71 73 71 69 68 69 75 80 79 74 75 78 79 78 76 75 75 74 72 67 64 66 69 72 76 79 81 83 84 83 79 74 73 74 72 69 77 84 79 86 101 104 102 101 100 100 97 92 83 74 67 59 55 58 60 57 52 57 66 69 72 76 74 73 75 74 78 91 99 99 101 102 100 100 97 89 81 75 72
23 27 40 60 79 95 104 107 106 104 101 100 100 101 98 91 82 74 71 71 69 70 72 71 74 82 83 79 79 82 84 84 81 79 78 78 76 66 63 69 75 78 79 80 83 84 85 83 77 71 68 67 68 64 64 70 66 73 97 105 101 100 101 100 99 100 97 87 76 65 56 55 57 58 59 59 52 47 50 54 63 74 79 77 73 77 83 86 90 94 98 102 101 99 97 94 93
24 22 25 36 55 76 93 104 107 107 103 100 100 101 100 92 83 77 75 75 73 73 76 75 75 81 82 81 84 87 88 87 85 83 81 82 75 65 67 76 79 81 81 81 82 84 84 81 74 68 65 63 64 63 60 62 60 68 91 104 103 101 102 104 101 99 100 95 88 79 66 57 58 58 58 58 50 44 45 45 55 69 75 74 68 63 64 68 71 75 85 93 94 97 101 102 101
26 24 22 24 34 52 75 96 106 108 105 102 101 100 95 88 84 82 82 84 82 78 80 81 81 82 83 84 89 92 89 86 86 85 86 83 71 66 75 81 82 84 82 80 81 83 82 78 73 67 65 63 61 62 63 63 62 65 77 90 97 99 100 104 104 101 99 97 93 89 79 66 60 59 61 64 59 56 58 60 64 67 70 73 68 60 58 58 58 61 67 75 80 89 99 103 102
27 27 25 22 24 31 50 77 98 107 106 103 102 98 92 89 90 92 92 92 89 84 84 87 87 86 88 91 93 93 90 87 85 85 85 76 65 70 83 86 84 84 84 84 83 83 81 76 73 67 63 62 60 61 62 63 63 63 64 69 77 86 92 97 103 105 102 99 96 92 87 81 72 65 66 70 69 68 68 67 67 64 69 79 73 64 61 58 55 56 59 64 69 77 90 99 99
28 27 26 24 23 22 31 50 74 94 102 106 105 97 96 97 94 95 95 92 89 84 82 86 89 92 96 96 94 93 90 90 90 87 76 62 65 81 90 89 85 86 88 90 88 85 81 77 72 68 64 62 61 61 62 63 65 65 64 64 64 70 75 80 89 98 102 104 102 95 88 85 82 74 66 65 63 61 63 63 62 63 73 84 78 67 62 57 55 54 56 60 62 68 80 88 90
29 27 26 26 24 23 25 31 45 65 83 100 105 96 101 105 98 98 100 97 93 87 84 86 92 100 103 100 96 93 91 93 94 84 67 61 76 90 92 89 87 90 94 94 92 86 80 76 71 69 66 63 62 62 64 65 65 64 65 66 66 64 64 66 72 83 92 100 106 105 96 85 82 82 75 69 66 65 69 68 64 67 76 80 73 64 59 54 52 51 53 56 56 59 68 75 77
30 27 27 27 27 26 28 27 28 38 53 73 86 89 100 108 103 102 105 103 98 94 92 90 95 102 102 99 100 97 92 94 92 80 71 74 83 86 85 85 88 92 95 95 91 86 81 76 71 69 66 65 64 65 67 67 67 66 64 62 62 61 61 60 62 71 78 84 94 103 105 96 84 84 88 90 88 82 79 72 68 70 71 70 64 62 60 52 48 48 50 53 53 53 57 61 63
29 29 30 29 28 27 29 30 27 27 32 42 55 67 84 100 104 103 104 104 99 96 96 92 93 96 94 94 100 98 91 90 88 81 80 83 83 80 79 81 85 87 88 88 87 85 81 76 72 68 64 64 67 69 69 70 72 70 67 67 69 70 72 73 78 86 81 72 76 80 91 101 97 91 91 96 97 91 81 72 70 71 65 62 60 60 59 53 50 50 50 51 52 52 53 53 53
33 34 34 32 30 28 29 30 28 26 27 28 33 41 57 78 91 97 102 105 103 102 102 96 94 94 90 89 92 92 87 85 84 82 83 83 81 81 80 81 80 79 79 79 79 78 76 74 69 63 63 69 75 76 75 80 83 81 81 84 84 82 80 83 93 102 90 70 66 64 66 81 94 99 97 93 93 91 84 77 77 74 66 62 60 59 58 55 54 53 51 52 52 53 53 51 50
33 34 34 33 35 34 33 34 32 28 28 27 26 27 35 50 66 79 91 100 104 107 108 105 103 101 97 91 86 83 81 80 80 83 84 82 83 83 81 80 77 76 75 73 74 75 75 69 62 68 81 89 93 93 91 95 97 98 99 95 88 81 77 81 88 90 80 64 58 54 50 54 64 81 95 96 95 92 87 87 88 82 74 70 68 68 66 62 61 58 55 55 54 53 52 51 50
29 31 33 35 38 38 38 41 38 31 29 29 27 25 26 31 41 53 67 80 89 96 102 106 107 105 102 94 82 76 75 75 80 84 84 83 84 83 82 80 76 75 73 73 74 75 73 64 66 88 98 96 100 102 101 102 102 105 102 91 87 80 71 69 69 63 55 48 45 42 41 42 42 53 72 89 101 99 92 92 94 88 85 85 81 77 74 71 68 63 61 58 55 53 51 50 49
30 32 35 37 40 41 42 46 45 36 28 28 28 27 26 26 28 33 41 53 65 77 88 95 99 98 97 90 79 75 74 76 82 83 81 81 81 81 82 80 77 75 73 74 77 79 77 70 81 103 101 95 99 98 102 109 104 99 89 75 71 67 57 50 46 41 37 35 34 32 33 34 35 39 47 69 96 103 96 94 94 94 98 96 86 80 78 75 71 66 64 61 57 55 52 50 50
31 31 33 36 42 44 46 48 48 40 30 27 27 27 27 27 27 27 28 33 43 56 67 76 81 84 86 83 77 75 77 81 84 81 79 78 78 78 78 79 78 75 73 76 76 77 78 76 87 103 102 100 102 99 102 108 106 98 87 74 64 55 47 39 33 30 28 26 26 26 26 26 29 31 35 57 92 104 100 98 98 102 105 100 90 83 80 77 74 70 67 63 60 58 55 52 51
31 31 31 35 40 44 47 50 51 46 36 28 26 26 26 27 27 26 25 26 29 35 44 53 62 70 77 78 74 76 83 88 85 80 77 76 76 76 75 76 75 73 74 74 72 70 68 72 84 97 104 102 99 103 102 102 104 94 79 70 58 43 32 27 24 24 23 23 23 21 21 23 24 32 48 71 96 104 102 101 101 105 107 103 97 90 85 81 77 73 69 67 66 63 60 59 57
33 33 31 34 39 42 47 52 54 51 42 32 28 26 24 25 26 25 25 26 26 27 30 35 42 52 61 65 67 74 84 86 83 80 78 76 76 75 76 75 73 71 70 70 74 73 68 74 86 96 105 102 98 104 103 98 90 73 66 58 39 27 28 38 45 44 41 37 32 28 28 31 35 50 71 86 99 103 100 101 101 105 109 108 103 93 86 82 79 76 74 73 71 68 68 67 65
37 36 34 35 37 41 46 50 52 49 41 33 28 25 23 23 24 24 26 26 27 27 27 27 29 34 39 44 51 62 70 73 75 78 77 76 76 77 79 77 74 69 66 73 81 82 88 94 97 100 101 101 104 103 97 87 66 53 54 39 29 49 67 77 85 84 79 69 55 45 42 44 50 62 73 82 98 105 100 101 102 103 107 108 104 94 87 85 83 81 80 80 78 74 73 71 68
39 40 40 39 38 39 43 51 54 48 40 34 28 25 24 24 23 23 24 25 27 27 27 27 27 27 27 28 32 41 49 55 61 67 67 69 71 74 76 74 70 62 59 70 76 86 105 104 97 101 99 98 103 94 79 68 51 43 37 19 36 87 103 96 100 103 101 91 75 60 50 48 50 56 66 78 94 103 100 100 101 102 103 104 104 97 91 91 90 89 90 88 83 77 75 72 68
42 45 44 44 42 38 41 53 59 52 43 37 29 25 24 23 23 23 23 24 25 26 27 28 28 27 25 24 26 28 32 36 41 47 49 53 56 59 60 57 54 48 43 50 56 69 88 90 86 90 89 89 85 65 47 39 30 24 23 29 61 97 102 98 100 99 102 101 93 76 57 48 45 49 64 76 85 97 101 100 101 101 101 102 103 101 100 100 97 97 99 95 86 78 75 72 71
45 48 47 47 47 41 40 51 60 56 46 37 28 24 23 22 22 23 22 21 22 24 26 27 27 28 26 26 27 27 26 26 28 30 31 34 36 37 38 36 35 32 30 35 40 44 55 62 59 60 69 72 56 34 24 25 22 19 36 68 93 101 99 100 100 99 100 97 92 82 63 50 43 45 62 73 83 97 102 100 101 100 100 101 103 104 106 105 103 103 102 96 88 82 79 77 79
47 48 48 49 51 46 40 45 55 53 44 35 28 24 22 22 23 24 23 22 23 25 25 25 26 26 26 27 28 27 26 26 25 25 25 25 25 25 25 24 23 22 23 32 39 37 36 36 39 61 77 59 33 23 20 21 17 22 61 97 102 100 100 98 100 102 96 85 78 74 63 49 42 49 62 71 85 100 102 100 101 100 100 102 103 103 103 106 107 104 99 94 90 88 87 85 83
47 48 46 48 51 51 43 41 45 44 39 34 30 26 23 21 23 23 24 27 32 32 29 27 26 25 25 26 27 26 26 27 27 26 26 25 25 25 24 23 21 21 21 28 35 35 41 53 65 80 71 35 22 25 22 30 33 38 76 105 99 98 101 99 102 102 97 93 87 79 72 63 57 56 56 62 84 103 103 100 101 101 101 102 103 102 103 106 108 103 97 96 95 93 90 84 77
47 46 45 46 49 53 47 39 36 35 35 32 29 27 23 21 22 23 25 30 32 31 30 29 26 24 24 23 23 24 25 25 26 27 27 27 27 27 27 25 24 24 22 23 25 28 47 73 73 55 35 21 25 26 26 48 58 51 71 96 101 102 101 100 101 99 96 95 87 78 76 73 64 55 51 63 89 103 102 101 102 101 100 101 102 102 102 104 107 105 102 99 97 92 85 75 67
47 45 43 43 45 50 50 41 33 31 31 28 26 26 23 22 25 24 24 27 28 30 34 33 28 25 23 21 21 21 22 24 26 26 26 26 27 27 27 27 26 25 24 23 24 24 33 45 39 25 23 25 28 32 43 61 68 63 69 81 91 97 100 102 100 98 96 89 80 76 77 80 77 74 78 89 100 102 101 102 101 101 101 100 101 103 104 103 106 108 104 98 92 82 71 63 58
44 44 42 40 40 43 46 42 35 32 29 25 25 24 23 24 26 25 26 31 35 38 39 35 29 27 24 22 21 21 23 29 31 29 26 25 24 24 24 24 24 24 24 23 23 25 25 24 24 23 25 27 32 43 58 66 72 84 89 85 87 91 97 101 99 100 94 78 75 81 89 95 96 97 100 101 101 101 101 101 100 101 100 100 103 106 105 103 104 104 95 85 76 65 60 57 54
49 45 42 40 40 42 47 47 41 35 30 26 25 23 23 25 27 28 32 35 38 40 37 32 29 27 25 24 23 23 27 33 34 31 28 25 22 22 22 21 21 21 21 22 21 22 23 22 24 24 23 26 28 32 42 44 47 69 91 97 98 98 99 102 101 100 88 72 75 89 98 101 100 100 101 99 101 101 100 100 100 101 101 103 106 104 101 100 97 89 77 68 61 57 57 55 51
53 48 43 40 41 46 54 58 50 40 34 29 26 23 24 26 26 30 32 33 36 38 33 30 30 29 27 28 28 27 30 34 35 31 28 25 22 22 21 20 20 20 19 19 19 20 21 21 21 22 25 29 32 35 39 39 44 72 99 104 100 98 99 99 98 98 92 84 89 98 100 99 100 100 100 100 101 100 100 101 100 100 103 104 103 99 97 93 84 73 65 60 57 55 54 51 48
51 46 43 42 42 45 55 61 55 46 40 36 30 26 26 28 28 30 30 30 34 36 31 29 31 30 28 29 31 32 34 35 33 30 27 25 24 23 23 22 21 21 20 19 20 23 25 23 20 20 23 31 52 68 63 60 75 96 106 104 99 98 97 94 95 97 94 93 98 101 100 100 100 100 100 100 100 100 100 101 100 101 103 102 101 98 90 80 71 64 60 56 53 52 50 48 47
55 47 43 42 43 44 52 59 55 48 42 39 35 30 30 32 31 30 31 34 39 39 36 32 30 30 28 29 36 42 41 37 33 30 27 25 24 24 24 24 23 23 23 23 23 25 26 25 22 21 21 27 54 80 79 81 99 105 101 101 101 99 96 92 92 92 91 94 99 100 100 101 100 100 100 100 100 100 100 100 102 102 100 99 97 88 77 69 64 60 56 53 50 48 46 46 50
57 52 48 45 42 43 48 54 55 51 45 42 39 35 35 35 35 36 37 41 46 43 37 33 30 31 30 35 49 56 49 40 34 30 27 24 25 26 26 25 26 26 26 25 27 28 28 25 22 23 27 33 49 66 70 81 99 102 98 98 99 101 99 95 96 96 96 99 100 100 101 102 101 100 99 99 100 101 101 101 101 100 98 95 88 77 70 65 60 57 53 49 45 44 46 50 56
59 53 50 46 43 44 48 53 59 58 53 49 46 42 41 39 42 47 44 42 43 39 33 30 30 31 31 43 63 65 51 41 35 30 28 27 28 29 28 27 26 26 26 27 32 38 38 33 25 22 28 36 44 50 61 85 102 101 95 94 97 102 101 99 101 102 100 101 101 101 101 100 100 100 99 100 101 101 101 100 98 98 96 88 78 71 65 59 54 51 47 44 43 46 51 56 57
70 58 48 43 42 44 47 55 65 68 63 59 54 52 51 49 52 54 46 38 36 33 30 30 31 30 33 53 70 63 48 41 35 32 32 30 30 31 31 30 29 28 28 27 30 35 38 36 31 26 27 33 38 37 48 76 99 100 93 90 95 102 104 104 105 104 101 102 102 101 100 100 100 100 100 100 100 101 99 98 98 97 89 77 68 63 57 51 48 46 43 44 48 53 57 58 56
82 70 58 50 46 46 46 51 61 67 67 63 62 62 62 59 58 52 43 37 35 35 35 34 32 31 39 60 67 55 45 40 36 35 34 32 33 35 35 35 34 32 30 29 29 29 30 31 29 27 27 30 36 35 34 48 67 74 74 75 82 93 101 102 100 102 103 102 102 101 100 101 100 99 100 100 101 101 98 96 96 90 75 63 59 56 51 47 44 43 46 51 56 59 60 58 56
Wind_Speed
60 60 60 63 63 61 60 59 58 56 55 54 52 50 48 47 48 48 47 47 48 49 48 47 47 48 48 46 46 47 48 49 49 47 43 40 39 38 39 41 39 36 36 37 39 40 42 45 48 50 46 43 41 39 37 36 36 36 37 37 37 37 37 37 36 35 34 33 32 30 28 26 25 25 25 26 26 27 27 26 25 24 23 22 22 22 21 21 21 21 20 19 19 18 18 18 18
62 62 61 62 64 61 59 59 57 56 55 54 52 50 48 47 47 48 48 47 46 47 48 48 48 49 49 46 46 47 48 50 49 46 43 41 40 40 41 42 41 38 37 38 40 41 43 46 49 50 45 42 42 39 37 36 36 36 37 37 37 37 37 37 36 35 34 33 31 29 27 26 26 25 25 26 26 27 27 26 25 24 23 23 22 22 22 21 21 20 20 19 18 18 18 18 18
63 64 63 61 63 63 60 59 58 57 56 55 53 51 49 47 47 48 48 48 47 46 47 48 49 50 50 47 46 47 49 50 49 46 43 42 42 42 42 43 43 40 39 40 41 42 45 47 50 50 44 42 42 40 37 36 36 36 37 37 37 36 36 36 36 35 34 32 30 29 28 27 27 26 26 26 27 27 27 26 25 24 24 23 23 23 22 21 21 20 20 19 18 18 18 18 17
64 61 63 63 64 64 62 60 58 57 57 56 54 52 50 49 48 49 49 49 48 47 47 48 49 50 50 48 47 47 48 50 49 47 45 43 43 43 44 44 44 42 41 41 42 44 46 48 51 49 44 43 42 40 38 37 37 37 37 37 37 36 36 36 35 35 34 32 30 29 28 28 27 27 27 27 28 28 28 27 26 25 24 23 23 23 22 22 21 21 20 19 19 19 18 18 17
68 63 60 63 66 66 64 62 59 57 58 57 56 55 52 51 50 50 51 51 50 49 48 48 48 48 49 48 47 48 48 50 50 48 46 45 45 45 45 45 45 44 42 42 43 46 48 49 51 48 44 43 42 40 38 37 38 37 38 38 37 36 37 36 35 34 34 32 30 29 28 27 27 27 28 28 29 29 28 27 26 26 25 24 24 24 23 22 22 21 21 20 19 19 18 18 16
71 70 66 64 66 67 66 64 61 60 60 59 58 57 55 54 53 52 53 53 52 52 51 50 49 48 48 48 48 49 49 50 50 49 48 48 48 47 46 45 45 44 43 43 45 48 49 50 51 47 44 43 42 40 38 38 38 38 38 38 37 37 37 36 34 33 32 31 30 28 27 27 27 27 28 29 29 29 28 27 27 26 26 25 25 24 24 23 22 22 21 20 19 18 18 17 14
70 72 72 70 67 67 67 65 63 63 62 61 60 58 57 57 56 55 54 54 53 53 52 51 51 50 50 49 50 51 51 51 50 50 49 49 50 49 47 45 43 43 43 45 48 50 49 50 51 48 45 43 41 39 38 38 38 38 37 37 37 37 36 35 34 33 31 30 29 26 26 27 27 28 29 30 30 29 28 27 27 27 27 26 25 25 24 23 23 22 22 21 19 17 16 14 10
70 71 72 72 70 67 67 66 66 66 65 64 64 61 59 59 60 60 57 55 54 52 51 50 50 51 51 50 51 51 51 51 50 51 51 51 52 50 47 45 43 42 45 48 51 51 50 52 52 49 45 43 41 39 38 38 38 37 36 36 36 36 35 34 33 32 30 29 27 25 25 27 27 28 30 30 30 29 28 28 28 28 27 27 26 25 24 24 23 23 22 21 18 16 14 10 7
71 71 71 72 71 68 66 66 68 68 69 69 68 65 62 61 61 63 63 59 56 53 52 50 48 50 50 49 50 51 51 51 50 51 51 52 52 51 48 45 43 45 49 52 53 52 52 54 53 49 45 43 40 39 38 38 38 36 36 36 35 34 33 33 33 32 30 28 26 24 25 26 27 29 30 30 30 29 29 28 28 28 27 27 27 26 25 24 23 23 22 21 18 15 11 8 7
72 71 71 71 70 69 67 65 67 70 73 73 71 69 66 65 64 64 65 65 62 58 56 53 50 50 49 48 49 50 52 52 51 51 50 51 52 51 49 47 48 51 54 55 54 53 54 55 53 47 44 42 40 39 38 38 37 36 35 35 34 32 30 31 32 32 29 26 25 24 25 26 27 29 30 29 29 29 29 28 27 27 26 26 26 26 25 25 24 23 23 21 17 14 10 9 9
74 73 71 71 68 67 67 67 68 70 74 75 74 73 70 69 70 68 67 68 68 64 61 57 54 53 54 54 52 51 52 53 53 52 51 52 52 52 51 52 56 57 57 55 53 54 55 54 49 45 43 41 39 38 38 38 37 36 36 34 31 29 28 30 32 32 29 25 24 24 25 26 27 29 29 28 27 27 28 27 27 27 27 26 26 26 26 25 24 23 23 21 17 14 11 11 11
74 74 73 71 68 66 66 67 67 69 71 73 74 76 75 73 74 75 70 68 69 69 67 63 60 59 61 62 58 55 55 54 55 55 55 55 55 54 54 57 59 58 57 56 55 54 53 50 46 44 42 40 38 38 38 37 36 36 35 32 30 27 27 29 32 32 27 23 23 23 24 26 27 27 27 26 26 26 27 27 27 28 28 27 26 26 26 26 24 23 22 21 18 15 13 12 12
75 75 74 72 69 68 67 65 66 67 67 68 72 76 77 76 77 78 75 70 68 70 69 65 63 62 64 65 60 57 57 57 58 59 59 58 59 59 58 59 60 58 58 57 54 52 49 46 44 43 41 39 37 37 37 37 36 35 34 31 29 27 26 28 31 30 25 22 21 22 24 25 25 26 25 25 26 26 26 27 27 27 27 27 26 26 26 25 25 23 22 21 19 16 14 14 13
76 76 75 73 70 70 67 65 65 65 65 67 71 73 74 75 77 78 76 74 70 69 67 64 63 61 61 62 60 57 57 59 60 61 60 59 59 58 59 59 58 57 55 52 49 47 45 44 43 42 40 38 37 37 37 37 36 35 32 30 29 27 26 27 30 28 23 19 19 22 24 24 24 25 25 25 26 26 25 25 25 26 26 26 26 27 27 26 24 23 22 21 20 18 16 14 13
77 77 76 73 71 70 68 66 65 65 65 67 70 72 73 74 75 75 74 74 72 69 67 65 63 61 60 58 57 56 55 57 59 60 59 57 55 53 53 53 52 51 50 47 45 44 43 43 43 41 39 37 37 37 37 36 35 34 32 30 30 28 26 26 28 26 21 18 19 21 23 22 24 25 25 25 25 25 25 24 24 24 24 25 26 28 29 27 24 22 22 22 20 18 17 15 14
78 78 76 72 69 68 68 67 66 65 65 68 70 72 74 73 73 73 72 72 71 70 68 66 63 60 59 57 55 55 53 52 54 55 56 55 53 51 49 48 47 46 45 43 42 42 42 43 42 41 39 37 37 37 37 36 34 34 32 31 30 27 26 26 26 24 20 17 19 20 22 22 24 25 25 24 24 24 25 24 24 24 25 26 27 29 31 29 26 23 22 22 20 18 17 16 16
79 79 76 71 68 66 66 66 65 65 66 68 70 72 73 73 72 71 70 69 69 68 67 65 62 59 58 56 54 54 53 51 50 52 53 53 51 50 47 45 45 44 43 41 41 41 42 42 42 41 39 37 36 36 36 35 34 34 32 32 30 26 25 25 24 23 20 18 18 19 20 21 23 25 24 23 23 24 25 25 25 26 27 28 31 32 32 31 28 25 23 22 20 19 18 18 18
79 78 74 70 67 65 64 64 65 65 66 68 69 72 73 72 72 71 69 68 68 67 65 64 61 59 57 55 53 52 51 50 49 51 51 50 48 46 44 43 44 44 42 41 40 41 42 42 42 40 38 37 35 34 33 33 33 34 33 33 30 26 26 25 24 23 20 18 18 18 19 21 23 24 23 23 23 23 25 26 26 27 29 30 31 32 32 32 29 27 25 22 21 20 19 20 21
79 77 73 69 67 66 65 65 66 66 67 68 70 72 72 72 72 71 69 68 67 65 65 63 61 58 56 54 52 51 49 48 48 49 48 47 45 44 43 42 43 43 42 41 40 41 42 42 41 40 38 36 35 33 32 32 32 32 32 32 30 27 26 25 25 23 21 18 17 17 18 20 23 24 23 23 23 24 24 26 27 28 29 30 30 30 30 32 31 29 26 23 21 21 21 22 23
78 76 72 68 67 67 67 67 67 67 68 69 70 71 71 71 71 69 68 68 66 65 64 62 60 58 55 54 52 50 48 46 47 47 46 45 44 44 43 42 43 42 42 42 41 41 41 40 40 39 37 36 35 34 34 33 31 31 30 30 29 28 26 26 26 25 21 17 16 17 18 21 23 24 24 24 25 25 25 26 28 29 31 31 31 30 29 30 31 30 28 25 22 21 22 24 26
78 75 71 68 68 68 68 68 68 69 70 71 71 71 70 69 69 68 66 65 64 64 63 61 59 57 55 52 50 48 47 46 46 46 46 45 44 44 43 42 43 42 42 41 40 40 40 39 39 38 37 37 36 35 35 33 31 30 28 28 28 28 27 26 27 27 22 17 17 19 20 22 24 25 25 25 26 26 26 27 29 31 32 33 32 32 30 29 30 30 29 26 23 23 25 28 30
77 74 70 69 69 69 69 69 70 70 70 71 72 71 70 69 67 66 65 63 62 62 61 59 58 56 54 51 49 47 46 45 45 45 45 45 44 45 43 42 43 42 42 41 40 40 39 39 38 38 37 37 36 35 34 33 30 28 25 26 27 27 27 27 29 28 24 20 22 24 25 25 26 26 26 26 26 26 27 29 31 33 34 34 34 34 33 31 30 31 30 28 27 28 31 33 34
78 74 71 70 70 71 71 70 71 71 71 71 71 71 70 69 67 66 64 62 60 59 58 58 57 55 53 51 49 47 46 45 45 46 45 45 45 45 44 42 42 41 41 41 40 40 39 39 38 38 37 36 35 34 34 33 30 28 25 25 25 26 27 28 30 30 27 27 29 31 31 31 31 29 28 26 26 27 29 31 33 34 33 33 34 35 34 33 32 32 31 31 32 34 36 37 37
79 75 72 70 70 71 71 71 72 71 71 71 71 71 70 69 67 66 64 61 60 58 57 56 55 54 52 50 49 47 46 46 46 47 46 46 46 46 44 42 41 41 41 41 40 40 40 39 38 37 37 36 36 35 35 35 33 30 27 27 27 27 28 28 29 30 31 33 35 36 36 36 36 34 32 30 29 30 33 35 35 34 32 31 32 33 34 34 34 33 33 33 35 37 39 40 40
79 76 74 72 71 72 73 73 73 72 72 72 71 70 70 69 67 65 63 62 60 58 57 56 54 53 52 50 48 47 47 46 47 47 47 47 47 47 45 43 42 42 42 41 40 40 40 40 39 38 37 37 37 37 38 38 37 36 33 32 31 30 29 29 30 30 32 35 37 38 39 39 38 38 38 36 34 35 37 37 36 34 32 31 31 31 33 34 35 35 34 35 37 38 40 41 42
79 76 76 75 73 73 74 74 74 74 73 73 72 71 70 69 67 64 62 61 60 58 57 56 54 53 52 50 48 47 46 46 47 47 47 48 48 47 45 43 44 44 42 41 40 40 41 41 41 39 38 38 39 40 41 41 41 41 40 38 35 33 31 30 31 32 32 34 35 37 39 39 38 39 40 40 39 39 40 39 37 35 32 31 30 30 31 32 34 35 36 37 38 40 41 42 43
78 78 78 77 76 74 74 74 75 75 74 73 72 72 71 70 67 62 60 61 60 58 57 56 54 53 52 49 48 47 46 46 47 47 47 48 49 47 43 42 43 43 42 41 41 41 42 42 42 41 41 40 40 40 41 43 43 44 44 43 40 37 35 33 33 34 34 35 36 37 39 39 38 38 40 41 42 42 42 42 40 37 33 31 31 30 31 32 33 34 36 38 39 41 42 43 44
78 78 78 78 77 76 74 73 74 75 74 74 73 73 72 70 65 61 60 61 61 59 57 56 54 54 52 49 48 47 47 47 47 48 47 48 48 45 42 42 43 43 43 43 43 43 43 43 43 43 42 42 42 42 42 42 43 44 45 46 44 42 41 39 36 35 35 36 37 38 39 39 39 39 40 42 43 43 43 44 43 40 36 34 33 32 33 34 35 35 36 38 40 41 42 44 45
78 78 78 78 77 76 74 74 74 74 74 74 75 74 71 67 64 62 62 62 62 60 58 56 55 54 53 51 49 49 49 49 49 48 48 49 48 44 42 43 43 44 44 44 44 44 44 43 44 44 44 44 44 44 44 44 45 46 48 48 48 46 45 44 40 37 37 37 37 38 39 39 39 39 40 42 44 44 44 44 44 42 39 37 35 35 35 35 36 37 37 38 40 41 43 44 46
77 77 77 77 77 75 74 75 75 75 75 75 77 73 68 66 66 64 63 64 64 62 60 58 56 54 53 52 51 51 50 50 50 49 50 50 46 43 44 45 45 45 45 45 45 44 44 44 44 45 45 45 45 46 46 47 47 49 49 50 49 49 49 48 45 40 39 39 39 40 39 39 39 40 41 42 43 44 44 43 42 42 41 39 37 37 37 36 37 37 38 39 40 41 43 45 47
77 76 76 75 75 72 72 74 75 76 76 76 78 72 66 68 67 65 64 64 64 63 61 59 57 55 54 54 53 53 52 51 51 51 51 48 44 44 45 46 46 46 45 45 45 44 44 45 45 46 47 47 47 48 49 50 50 51 51 52 52 52 52 52 50 46 42 40 41 42 41 41 40 41 42 43 43 43 43 42 41 41 41 40 39 39 38 38 38 38 38 38 40 41 43 45 47
78 76 73 71 71 70 71 74 75 77 77 78 78 71 67 69 67 65 65 65 65 64 62 60 59 57 56 55 55 55 54 52 53 52 50 45 44 45 46 46 46 45 45 45 45 45 45 45 46 47 48 49 49 50 51 52 53 54 53 53 53 54 54 53 53 51 47 44 42 42 42 42 41 41 42 43 43 43 42 42 42 41 41 41 41 41 40 40 39 39 39 39 39 40 42 45 47
78 74 69 67 67 68 70 73 74 77 79 79 77 71 68 70 68 67 66 65 65 64 63 62 60 59 57 57 58 57 55 54 54 52 47 45 46 47 47 46 46 45 45 45 46 46 46 46 47 48 49 51 52 53 54 55 56 56 55 56 55 55 55 54 53 52 50 48 46 44 43 43 43 42 42 43 43 43 44 45 44 43 42 43 43 42 42 41 41 41 41 40 40 41 42 44 46
76 70 66 65 65 66 68 71 74 77 78 79 76 72 70 71 70 69 68 67 67 65 64 63 62 61 60 60 60 59 57 56 55 51 48 48 48 48 47 47 46 46 46 46 46 46 47 47 47 49 50 52 54 55 57 58 58 57 56 54 53 51 50 50 50 51 50 49 49 48 45 44 44 44 44 44 45 45 46 47 46 45 44 45 44 44 43 43 43 43 43 43 43 43 44 45 46
74 70 66 65 65 65 66 69 73 76 77 78 76 73 71 72 72 71 69 68 68 66 66 65 64 63 61 61 61 60 58 57 55 52 52 51 50 49 49 48 48 47 46 46 47 47 48 47 48 50 52 55 56 57 58 58 57 55 51 49 49 49 48 48 50 51 50 50 50 50 48 46 45 45 45 45 45 45 46 47 47 46 46 46 46 45 45 45 44 44 44 44 45 45 46 47 47
77 74 71 69 67 66 66 68 72 75 76 77 75 72 72 73 73 73 71 70 69 68 67 65 64 63 62 62 62 60 59 57 56 54 54 53 52 51 51 50 49 48 48 48 48 49 48 47 47 45 46 49 48 49 53 54 54 52 50 51 53 52 50 50 52 53 53 53 52 51 50 48 46 45 45 45 46 46 46 47 47 47 47 47 47 47 46 45 44 44 45 45 46 47 47 48 48
82 79 76 73 71 69 69 70 72 75 75 74 74 73 73 73 74 74 72 72 71 69 68 67 65 64 63 64 63 62 60 58 57 56 55 54 53 53 52 52 50 49 49 48 49 50 47 46 43 37 38 41 41 44 48 49 50 49 51 54 55 54 54 54 55 57 59 57 54 52 51 50 49 48 46 45 45 46 46 47 48 48 48 48 48 47 46 45 44 45 45 46 47 47 47 48 49
85 82 79 75 73 72 71 72 73 75 75 73 73 73 72 72 73 74 73 72 71 70 69 68 67 65 64 65 64 62 61 59 58 58 57 55 54 53 52 52 50 49 48 46 48 48 45 43 37 33 40 44 44 48 49 49 52 54 54 54 54 56 58 59 60 60 60 59 56 53 51 50 49 49 48 45 44 45 46 47 48 48 48 48 48 48 47 46 46 46 46 47 47 47 47 48 49
87 84 81 78 76 74 74 74 74 75 74 72 72 71 71 71 72 72 71 69 69 70 70 69 67 66 65 65 63 62 60 59 59 59 58 56 55 54 53 52 50 49 47 46 47 45 43 42 37 35 43 48 49 53 53 52 54 56 56 56 56 58 61 63 64 62 60 59 56 54 52 50 49 48 47 45 44 45 46 46 46 47 48 48 48 48 48 47 47 47 47 47 47 47 47 48 49
88 86 83 80 78 77 76 76 76 75 73 71 70 70 70 70 70 69 68 67 67 68 69 68 66 65 64 64 62 60 59 59 60 59 58 57 56 55 54 53 51 49 47 46 47 45 44 44 41 40 43 47 50 50 50 51 51 55 57 58 59 62 65 65 63 61 59 56 54 52 51 49 48 47 45 43 43 44 45 45 45 46 47 48 48 48 48 47 47 47 46 47 47 47 48 48 49
87 86 84 81 80 79 78 79 79 77 75 72 70 70 68 67 66 66 65 64 65 66 66 66 65 65 64 63 60 58 59 60 60 59 58 57 56 55 54 53 51 50 47 44 45 46 45 44 43 44 46 50 52 50 51 53 55 58 59 59 61 64 64 61 58 55 53 50 49 48 47 46 45 43 42 42 43 44 45 45 46 47 47 47 47 47 47 46 46 46 46 47 47 48 49 49 51
86 86 84 82 81 81 81 82 82 80 77 73 70 68 65 64 63 62 62 62 63 64 64 64 64 64 64 62 60 59 60 61 60 59 58 57 56 55 55 53 51 49 44 41 44 44 42 43 45 47 49 53 55 56 57 58 58 59 58 58 59 56 52 48 46 46 45 44 43 42 42 42 42 42 42 43 43 45 46 46 47 47 46 46 46 46 45 45 45 46 46 47 48 49 50 51 52
87 85 84 83 82 82 83 84 84 81 77 73 71 67 64 62 60 59 60 60 60 61 61 62 62 63 63 61 60 61 62 62 61 60 58 57 56 55 55 53 50 47 42 41 44 42 42 48 51 50 50 52 54 57 59 58 58 58 56 54 50 45 42 40 39 40 41 41 40 40 41 41 42 42 42 43 44 46 46 47 47 46 45 45 45 45 44 45 45 46 47 48 49 50 51 53 55
86 85 85 84 83 84 84 85 85 82 79 76 72 67 63 61 59 59 59 58 58 58 58 58 59 61 61 60 59 61 62 62 61 60 59 58 57 56 55 52 50 46 41 44 48 47 49 53 52 51 53 55 57 59 60 60 59 56 49 45 42 41 39 36 34 35 35 36 38 39 40 41 42 43 43 44 45 46 47 47 46 45 45 45 45 44 44 45 45 46 47 48 50 52 54 56 58
87 87 87 86 86 86 86 87 86 84 81 78 72 67 63 59 58 59 58 57 55 54 54 56 58 60 60 59 59 60 60 60 60 59 59 58 57 56 55 53 51 45 41 48 53 53 56 56 52 53 55 57 58 60 60 58 54 48 40 35 37 41 40 34 33 35 38 42 45 44 42 42 43 44 44 45 45 46 47 47 46 45 46 45 44 44 44 45 46 47 48 50 52 55 57 59 60
89 90 89 89 88 87 86 87 86 85 82 76 71 67 63 59 58 57 54 51 50 51 54 56 58 59 58 56 57 57 57 57 57 57 57 56 55 55 54 53 52 46 43 50 55 54 56 55 52 52 53 56 57 56 54 50 45 40 33 31 38 43 43 40 41 44 47 48 48 46 44 43 43 44 45 45 46 47 47 47 46 46 45 44 43 44 45 46 47 49 51 53 55 57 58 59 60
92 92 91 90 89 88 87 87 86 84 80 74 71 69 65 62 60 56 51 48 49 52 56 57 58 58 56 56 56 55 55 55 54 54 54 53 53 53 53 52 51 48 47 51 53 52 51 49 48 50 52 54 52 49 45 42 39 35 30 31 37 42 44 44 46 47 47 46 45 44 43 42 43 43 44 45 47 47 47 47 46 45 43 43 44 45 46 48 50 52 53 55 56 57 58 59 60
93 93 92 91 90 89 88 87 86 81 76 73 72 70 67 62 58 55 52 51 53 55 56 57 57 56 55 56 55 53 53 52 51 51 51 51 51 50 50 49 48 47 48 49 49 49 48 48 49 51 51 50 46 43 41 39 36 33 33 36 38 39 42 44 46 47 48 48 47 45 42 42 42 42 44 45 46 47 46 45 44 43 43 43 45 47 48 50 52 53 54 55 56 57 59 59 60
94 94 93 92 91 90 88 86 82 76 73 74 73 71 67 61 57 56 54 53 54 53 54 56 56 55 55 55 53 51 50 48 48 50 50 50 50 50 49 48 47 47 46 46 46 48 50 51 51 49 47 46 43 40 38 36 34 31 35 41 43 44 45 47 49 49 49 48 46 44 42 40 40 41 42 43 44 44 43 43 42 42 43 45 47 49 50 51 52 54 55 56 57 58 59 60 61
92 92 91 90 89 87 85 82 78 74 73 74 73 70 65 59 58 58 55 54 54 53 54 56 55 55 54 52 49 48 46 46 47 49 50 51 50 49 48 48 47 47 46 45 45 46 48 49 47 46 45 43 42 40 37 35 33 31 35 41 44 45 47 48 49 48 48 46 44 41 38 37 38 39 40 41 41 41 41 42 42 43 45 46 48 50 51 52 53 55 56 57 58 60 61 62 63
89 90 90 88 85 83 81 79 76 74 73 73 72 68 62 57 57 57 56 56 55 55 56 56 55 54 51 48 46 45 45 46 48 49 50 49 49 48 48 47 47 47 46 45 44 46 47 46 45 44 44 44 43 41 39 38 37 36 38 41 42 41 43 45 46 47 46 44 39 36 35 35 37 38 39 40 41 41 42 42 43 45 46 47 49 50 51 53 54 55 57 58 60 61 62 63 65
91 91 90 87 84 82 81 80 77 75 74 73 71 66 58 56 57 57 57 57 56 56 56 54 53 51 49 47 46 45 46 48 48 48 48 48 47 46 46 46 46 46 46 45 44 45 46 46 45 43 43 44 42 40 39 38 38 38 38 41 43 43 44 45 46 45 43 39 36 34 34 36 37 39 40 41 42 43 43 44 45 46 47 48 50 51 52 54 55 56 58 60 61 62 63 65 65
91 90 88 85 83 83 82 81 78 76 74 71 69 63 57 55 56 56 57 57 56 57 55 54 53 51 48 47 46 46 48 49 48 47 46 46 44 44 44 44 44 45 45 44 43 44 45 45 44 43 44 43 39 37 38 36 37 37 37 40 44 46 46 46 45 44 41 38 36 35 37 39 40 42 43 44 44 45 45 46 47 48 49 50 51 52 54 55 57 58 60 61 62 63 64 65 64
89 87 85 85 85 83 82 81 79 77 74 71 67 62 57 56 55 55 56 56 56 56 55 54 53 51 49 47 46 48 49 48 47 46 45 44 43 43 43 42 42 42 42 42 43 43 44 44 43 43 43 41 39 39 38 36 34 35 36 40 44 45 45 45 45 43 41 39 39 40 41 43 44 44 45 46 47 47 48 49 49 50 51 51 53 54 55 57 58 60 61 62 63 64 64 63 62
88 86 86 86 84 82 81 80 78 75 72 69 66 61 57 55 54 53 55 55 54 54 55 54 52 51 50 48 47 49 49 48 47 47 46 44 42 42 41 40 40 40 41 41 42 42 43 43 43 43 41 38 38 39 38 35 35 35 38 41 44 45 45 45 44 43 42 41 42 43 44 45 45 46 46 48 49 50 50 51 51 51 52 53 55 56 58 59 60 61 62 63 64 63 62 61 60
88 87 87 86 83 81 80 78 76 73 70 66 63 59 55 53 51 51 53 54 53 53 54 53 52 52 51 49 49 51 50 49 48 47 46 44 42 41 41 40 39 39 40 40 40 41 42 42 42 42 41 40 40 40 37 35 36 39 42 44 46 47 46 44 43 42 42 42 42 43 44 45 46 47 48 49 50 51 51 52 52 53 54 56 58 59 60 61 62 63 63 63 62 61 60 59 59
85 84 84 83 82 81 79 77 74 72 69 65 61 56 52 51 50 49 51 52 52 52 52 52 53 53 51 50 51 52 51 50 48 46 45 44 42 41 41 40 39 39 39 39 39 39 40 41 41 41 42 41 41 42 40 40 41 44 46 46 46 46 44 44 44 43 43 43 43 44 45 47 48 49 50 51 52 53 53 54 54 55 57 58 59 60 61 62 63 63 62 61 60 58 57 58 59
83 82 81 80 79 78 76 73 71 69 67 63 60 55 51 50 49 48 49 50 51 51 51 52 53 51 49 51 53 52 51 49 47 46 45 43 41 41 40 40 39 39 39 38 39 39 39 40 40 41 42 42 41 42 44 45 46 48 48 46 46 45 45 45 45 45 45 45 45 47 48 49 50 51 52 53 54 55 55 56 57 58 59 60 61 62 62 63 62 61 59 58 57 56 57 59 60
Wind_Direction
235 235 237 242 243 244 245 246 246 245 246 247 248 246 247 250 250 249 247 246 244 243 244 246 248 250 252 253 255 258 260 263 265 268 269 271 276 277 274 275 276 279 288 297 304 307 309 312 315 316 314 313 313 313 313 316 317 317 315 314 314 314 315 315 316 316 316 316 314 316 320 321 320 320 321 321 319 318 319 319 320 321 321 321 321 320 319 319 318 316 315 313 311 307 304 301 298
234 235 235 239 243 243 244 245 246 246 247 247 248 246 247 249 249 248 247 246 245 243 243 245 248 250 251 252 254 257 259 262 265 267 268 271 275 275 274 275 276 281 291 299 302 304 307 311 313 314 312 311 311 310 312 314 316 316 314 314 313 313 313 313 314 314 314 313 313 316 321 322 321 320 320 319 318 317 317 318 319 320 320 321 320 319 319 318 317 316 316 314 312 308 304 302 300
231 234 234 235 239 241 242 243 245 247 248 248 247 246 246 247 247 248 247 247 246 244 243 246 249 251 251 250 252 254 258 262 264 266 267 270 273 274 274 275 276 282 290 297 299 302 306 309 311 312 310 309 309 308 310 313 314 314 314 313 311 311 311 312 313 313 312 311 313 318 321 321 320 320 318 317 316 316 317 318 318 319 319 319 319 318 318 318 317 316 315 314 311 308 305 304 303
227 231 234 234 236 239 240 241 244 246 247 247 247 246 246 246 247 248 248 248 247 245 244 246 249 250 250 249 250 253 257 261 263 264 265 269 272 272 273 274 276 279 286 294 296 300 305 308 310 310 308 308 307 306 308 311 312 313 312 310 309 310 310 311 312 312 312 313 316 320 322 321 319 318 316 316 316 318 318 319 319 318 318 318 318 317 318 318 317 316 315 314 312 310 308 307 306
226 227 230 232 234 237 239 240 242 244 245 246 246 246 246 246 247 247 247 247 247 246 246 247 248 249 250 250 250 253 257 260 262 264 265 267 270 271 271 272 274 277 284 290 293 299 304 306 309 308 306 305 304 304 307 310 311 311 310 308 309 310 310 311 312 313 314 316 319 322 323 321 319 319 318 319 319 320 320 319 319 318 317 317 316 317 318 318 317 316 315 315 314 313 311 309 309
228 228 228 230 232 235 239 241 241 241 243 245 246 246 246 246 246 247 246 245 245 246 246 247 248 249 250 250 251 254 258 259 262 264 265 267 269 270 269 271 273 275 282 287 290 298 301 304 307 305 303 303 301 303 305 309 310 309 308 308 309 310 310 311 313 314 316 319 321 323 324 321 320 320 320 321 320 319 319 319 319 318 317 316 316 317 318 318 317 317 316 317 316 314 313 311 308
229 230 230 232 233 234 237 240 241 240 241 243 244 246 247 248 247 246 245 244 244 245 247 248 249 250 250 251 253 256 258 259 261 262 264 266 268 270 270 271 272 275 281 285 288 295 298 301 304 302 300 300 299 301 304 308 308 308 308 307 308 309 310 312 313 314 316 320 322 324 323 320 320 320 321 321 319 318 318 318 318 318 317 315 315 316 317 317 317 317 317 317 316 315 315 313 306
231 231 231 232 233 233 235 237 239 239 240 242 243 244 246 248 249 248 245 243 243 244 247 249 250 251 251 252 254 257 258 260 261 261 263 265 268 270 271 272 273 275 280 283 286 292 294 297 301 299 298 297 298 300 304 306 307 307 306 306 307 309 311 313 312 312 316 320 322 323 321 319 319 320 320 320 318 317 318 318 318 317 316 315 315 315 316 316 316 316 317 317 315 315 317 315 303
234 233 232 233 233 233 233 234 237 238 239 240 242 243 244 246 248 250 248 244 242 242 243 245 247 248 251 253 255 257 258 260 261 261 262 264 266 268 270 271 272 275 278 282 285 289 291 295 298 296 295 295 296 299 303 305 305 305 304 304 306 311 313 312 310 312 316 319 322 322 319 317 318 320 320 319 318 318 318 318 318 317 317 317 316 315 315 314 314 315 316 317 315 313 314 310 301
235 235 234 234 234 234 234 233 234 236 238 239 241 243 243 244 245 248 250 247 243 241 241 241 241 242 245 249 253 256 258 260 261 262 263 264 265 266 268 269 271 275 278 283 286 288 290 293 295 293 292 293 295 299 302 303 304 303 302 303 309 314 312 310 311 313 314 317 321 320 317 316 318 320 320 319 319 319 320 320 320 320 321 321 321 319 317 314 313 314 315 316 314 309 305 300 297
236 236 236 236 235 235 236 235 234 235 237 239 240 242 243 243 244 246 249 250 247 244 241 240 241 242 246 250 252 253 255 257 259 261 262 263 265 267 268 269 272 276 280 284 288 289 289 290 290 289 289 291 294 298 300 301 302 301 300 305 312 312 308 310 313 313 312 314 318 318 315 317 321 322 321 321 322 323 323 323 323 323 323 323 323 322 320 317 314 314 315 316 312 306 298 295 295
237 237 237 237 236 236 237 237 237 237 238 239 240 241 242 242 244 247 248 249 250 249 245 243 244 247 252 256 255 253 253 255 257 258 260 262 265 268 269 270 272 276 280 284 287 287 287 287 287 287 287 290 294 297 299 299 300 299 300 308 312 305 303 311 314 313 310 311 315 316 315 320 324 325 324 324 325 326 325 324 325 324 324 323 323 321 321 319 316 315 315 315 311 304 295 292 295
237 238 238 237 236 236 237 238 239 241 241 241 242 242 241 242 244 247 249 249 251 252 252 250 250 253 256 258 258 255 252 252 254 256 258 261 264 267 268 270 272 276 279 282 283 283 283 284 284 285 286 289 292 295 296 296 296 296 300 309 309 299 300 310 314 312 307 308 313 315 317 323 327 327 328 328 327 327 327 327 329 330 330 330 329 326 322 319 318 317 316 315 309 303 295 289 291
237 237 238 237 236 237 237 238 239 241 243 243 244 244 243 242 244 246 248 250 251 254 255 255 255 256 256 257 257 256 252 250 252 255 259 263 265 266 267 268 271 275 277 278 278 279 280 281 282 283 285 288 291 294 294 294 294 295 301 307 305 297 298 307 312 310 305 307 313 314 317 323 329 330 331 330 329 330 331 333 335 336 336 337 337 335 330 323 320 320 318 316 310 302 295 288 286
237 237 237 237 236 237 238 238 239 241 242 244 244 246 245 243 243 245 247 250 252 254 256 257 257 257 256 256 256 256 254 253 253 257 262 265 267 268 269 270 272 273 274 275 275 277 279 280 281 283 284 286 290 292 293 293 293 294 300 305 304 298 297 304 311 309 303 307 314 314 316 321 330 332 332 333 334 335 335 336 337 337 338 339 341 341 338 330 323 322 321 318 312 304 297 288 281
236 237 237 236 236 237 238 238 239 241 242 244 244 245 246 244 244 244 246 248 251 253 256 258 257 257 257 257 256 257 257 257 258 260 262 264 267 269 271 272 271 270 271 272 273 275 277 279 281 282 283 286 290 292 292 292 292 295 299 303 304 298 295 301 307 307 302 309 314 313 314 320 329 331 332 335 338 337 335 335 336 336 337 338 339 340 340 335 327 323 322 320 315 308 300 289 280
236 236 236 236 236 237 238 239 239 240 241 243 244 245 246 246 245 245 246 248 250 252 255 257 257 257 257 257 257 258 259 261 261 261 262 264 266 268 269 268 267 267 268 270 272 274 276 278 280 281 283 286 290 292 292 293 294 297 298 301 302 296 295 299 303 303 302 308 311 312 315 321 328 329 331 335 337 335 332 331 332 334 335 336 336 338 340 339 332 324 321 319 316 312 304 293 284
236 236 236 235 235 235 236 237 237 238 240 242 243 245 246 246 246 246 247 248 249 252 253 256 257 257 257 258 258 259 260 261 261 261 263 264 265 266 265 264 264 266 267 269 271 273 275 277 279 280 282 286 290 293 296 297 298 298 298 298 299 295 294 298 298 297 298 303 308 313 318 322 326 327 329 331 331 330 327 326 327 330 331 333 336 337 340 340 336 328 321 316 314 313 309 301 294
235 235 235 234 233 234 234 235 235 236 238 241 243 244 245 246 247 247 248 248 249 251 253 255 256 257 257 258 259 260 260 260 259 260 261 262 262 262 262 262 263 265 267 268 270 272 274 276 278 279 282 286 289 292 296 300 301 301 299 296 295 293 292 296 295 292 292 296 304 313 319 322 325 325 326 326 326 325 323 322 322 325 326 328 332 335 337 339 338 331 322 316 313 312 311 307 302
235 235 234 233 233 233 233 234 235 235 236 239 242 243 245 246 247 247 248 249 249 251 252 254 255 256 257 257 258 258 258 258 257 258 259 259 259 260 260 260 262 264 266 268 270 271 273 276 277 279 283 285 287 289 294 299 300 301 302 298 293 290 289 291 291 288 286 289 298 307 314 317 319 321 322 322 320 320 319 318 319 321 323 324 326 329 331 334 336 332 324 315 311 311 310 308 306
235 235 233 232 231 232 232 234 234 235 236 238 241 243 244 245 246 246 247 248 249 250 251 252 254 255 256 256 256 256 255 255 255 255 256 257 258 258 259 260 261 263 265 267 269 270 273 274 276 279 281 284 286 288 291 296 298 301 304 300 295 291 289 287 287 286 282 281 290 298 305 309 309 312 315 317 316 313 312 312 314 317 318 319 321 323 324 327 329 329 322 313 309 310 311 310 308
235 235 233 231 231 231 231 233 234 235 235 237 240 242 243 244 245 245 246 246 247 249 250 251 253 254 254 254 253 253 253 252 253 254 254 256 256 257 258 259 260 263 265 267 268 269 271 272 275 278 280 283 285 286 289 292 297 303 307 305 299 294 291 286 283 282 276 274 282 288 293 297 299 301 304 311 313 311 311 312 314 315 314 314 315 318 320 321 322 323 318 309 304 306 307 307 306
234 233 232 231 231 231 231 232 233 235 235 237 240 241 242 243 244 244 245 246 246 248 249 250 251 252 252 252 251 251 251 250 251 252 253 254 255 256 257 258 260 262 265 266 266 268 269 271 274 277 279 281 282 284 286 288 293 300 306 306 302 297 294 289 283 279 273 271 278 282 285 288 292 293 294 301 307 310 312 314 317 317 316 314 314 317 318 318 318 317 314 306 300 301 302 302 302
233 232 232 231 230 231 231 231 232 234 235 237 239 241 242 243 243 243 244 245 245 246 247 249 250 251 251 250 250 250 249 249 249 251 252 252 253 255 256 257 259 261 263 263 264 265 267 270 272 274 277 279 280 281 283 284 287 292 298 300 299 297 296 294 287 280 275 275 278 281 283 286 290 292 290 292 296 302 307 311 315 317 318 319 320 320 318 316 315 313 310 305 300 298 298 298 298
232 231 231 230 230 230 231 231 232 233 235 236 239 240 241 242 242 242 243 244 245 245 246 247 248 249 249 248 248 248 248 248 248 249 250 251 252 253 254 257 258 259 260 261 262 263 265 268 270 271 273 275 278 279 279 280 283 285 289 293 296 297 296 294 290 284 280 280 281 284 286 287 290 291 290 290 291 295 302 307 311 313 315 320 324 322 318 314 313 311 308 303 300 298 297 297 296
231 230 230 229 229 229 230 231 231 232 234 236 238 239 240 241 241 241 242 244 245 245 245 246 246 247 248 247 247 247 247 247 247 248 249 250 251 252 254 256 257 258 258 259 260 261 263 266 268 270 272 272 273 274 275 276 279 281 282 286 291 295 295 293 290 285 283 283 285 287 288 288 288 288 288 289 290 292 298 303 306 308 310 315 322 323 320 316 314 312 309 304 301 299 298 297 296
231 230 230 229 228 228 230 231 231 232 233 235 237 239 240 241 241 241 242 244 245 245 245 245 245 246 247 247 246 246 245 246 246 247 248 249 250 252 254 255 256 258 258 257 257 259 262 265 268 272 274 274 273 273 274 273 275 277 279 281 285 288 290 291 290 286 284 284 285 287 288 287 285 284 285 287 288 290 293 297 300 302 303 308 315 319 321 320 319 317 313 308 304 301 299 297 296
231 230 229 229 228 228 229 231 232 233 234 235 236 238 239 240 241 241 242 244 244 244 244 244 244 246 246 246 245 245 244 245 245 246 248 249 250 252 254 254 255 257 257 256 257 259 261 265 269 272 274 275 275 275 275 273 273 274 276 278 280 283 285 287 288 287 284 284 284 284 286 286 283 281 282 284 285 287 290 293 295 296 296 300 306 312 316 318 321 320 316 312 309 305 301 298 297
230 230 229 229 228 228 229 231 232 234 234 235 236 237 238 240 241 241 241 243 243 243 243 243 243 244 246 246 245 245 244 244 245 246 247 248 251 252 253 253 253 254 255 256 257 259 262 266 269 272 274 275 276 276 276 274 272 272 274 275 277 280 281 282 284 285 285 285 284 282 283 284 282 280 280 281 283 286 288 290 292 293 292 293 299 305 309 314 318 319 317 315 313 309 304 300 298
229 229 228 228 228 227 228 230 231 233 234 235 236 236 237 239 239 239 240 241 242 242 242 243 243 244 245 245 245 245 245 245 245 245 246 248 251 252 251 252 253 254 256 257 259 261 263 266 269 271 273 274 275 276 276 276 275 274 274 275 276 278 279 280 281 282 282 283 283 282 282 281 281 280 279 279 282 284 287 289 290 291 291 292 296 301 305 311 315 317 317 317 315 311 306 302 300
228 228 227 228 228 227 227 229 231 232 233 235 236 236 236 238 238 239 239 240 242 242 242 243 243 244 244 245 245 245 245 245 245 245 246 249 250 250 250 252 253 255 257 258 259 261 263 266 268 271 272 274 275 276 276 276 276 276 277 277 278 279 279 280 281 282 281 281 282 282 282 281 280 280 279 280 282 284 287 288 289 290 290 291 295 299 303 307 311 314 316 316 315 312 306 303 302
227 227 227 228 228 227 228 229 230 232 233 234 235 235 235 237 238 238 239 240 241 242 242 242 243 243 243 244 245 245 245 245 245 246 248 249 249 248 249 251 253 255 256 258 259 261 264 266 268 270 273 275 276 277 276 276 276 276 277 277 278 279 280 280 282 284 284 284 284 283 283 282 281 281 282 282 283 284 286 287 288 289 289 291 294 298 301 304 307 310 313 314 314 312 307 304 303
227 226 226 227 228 227 228 229 230 231 233 234 235 234 234 236 237 238 238 239 240 241 241 241 241 242 242 243 245 245 245 245 247 248 249 249 248 248 249 251 252 253 255 257 260 262 264 266 269 272 274 276 277 277 276 277 277 277 278 279 280 280 281 281 282 284 285 285 285 285 284 282 281 281 282 282 283 283 284 285 286 287 288 291 293 296 299 302 304 306 309 311 311 311 308 306 304
227 227 227 227 227 227 228 230 230 231 233 234 234 232 232 235 236 237 238 239 240 241 241 241 241 241 241 242 244 245 245 246 248 250 250 249 249 250 251 251 252 253 255 257 260 262 264 267 270 273 276 277 276 277 277 277 277 278 279 280 281 282 282 283 283 284 286 286 285 285 285 283 281 280 279 279 280 281 282 283 283 285 287 290 292 295 298 300 302 303 306 308 309 309 308 307 306
227 227 227 227 228 228 228 230 231 231 232 233 233 231 231 233 235 236 236 238 240 240 241 241 241 241 241 242 243 245 246 247 249 250 250 251 251 252 252 252 253 254 256 258 260 262 264 268 272 276 278 278 277 277 276 276 278 279 279 278 279 280 280 281 282 283 285 286 286 285 286 286 283 281 279 279 280 281 282 282 282 283 286 288 291 293 296 298 300 302 303 305 307 307 307 307 307
226 225 225 225 226 226 226 229 231 231 232 233 233 231 231 231 233 234 234 235 237 238 239 241 241 242 242 243 244 245 247 248 249 250 251 251 252 252 253 253 254 256 257 260 262 263 265 269 274 279 278 276 277 276 276 277 278 279 279 280 281 280 280 279 280 282 284 286 286 285 286 286 286 284 282 282 281 282 282 281 281 282 285 287 290 293 295 297 299 301 303 304 305 306 306 306 307
224 223 223 223 224 224 225 226 229 230 230 231 231 230 230 230 232 233 233 234 236 237 239 239 240 241 241 243 244 246 247 248 249 250 251 251 252 252 253 254 255 256 258 261 263 264 266 270 274 273 267 267 270 272 276 280 279 277 279 281 281 281 282 281 281 283 285 285 286 285 286 286 286 286 286 285 283 281 281 280 281 282 285 287 290 293 295 297 299 301 303 304 304 305 305 306 306
222 222 222 222 223 224 225 226 228 230 229 228 229 229 229 230 231 233 233 234 236 237 238 239 240 241 242 243 245 246 247 248 249 250 250 251 252 252 253 254 255 256 258 260 262 264 267 270 270 263 258 260 264 268 273 278 277 277 280 281 280 281 283 284 284 284 284 285 285 285 286 286 286 286 286 286 284 282 281 281 282 284 285 288 290 293 295 297 299 301 302 302 303 304 305 306 306
220 221 221 221 222 224 225 227 229 230 230 228 229 229 228 229 230 232 233 234 235 237 238 240 241 242 243 244 245 247 248 248 249 249 250 251 251 252 252 253 254 255 256 257 259 263 266 268 266 263 264 264 263 265 268 271 274 278 280 280 281 282 284 285 285 285 284 284 285 285 285 285 284 284 285 285 283 282 283 283 284 285 286 288 290 293 295 297 299 300 300 301 302 304 304 305 306
219 220 220 220 221 223 225 228 230 231 231 229 229 229 228 229 230 231 232 233 235 237 239 241 242 243 244 245 246 247 247 248 248 249 249 250 251 251 252 253 254 255 256 257 260 262 264 266 264 264 267 266 264 263 265 269 273 278 281 281 282 284 285 285 285 285 285 285 284 284 284 283 283 283 283 282 281 282 283 284 284 285 287 289 291 293 295 297 298 299 300 301 303 304 305 306 306
219 219 220 219 221 222 224 227 229 230 230 229 228 229 229 229 231 232 232 233 234 236 238 240 241 242 243 245 245 246 247 247 248 249 249 250 251 252 252 253 254 255 257 260 263 263 264 265 263 260 258 259 264 265 267 272 276 279 282 283 286 286 286 285 285 285 285 285 284 283 282 282 281 280 279 279 280 281 282 283 284 285 287 289 291 293 295 296 298 299 300 302 303 304 305 306 307
218 219 219 219 220 222 223 226 228 229 229 229 229 228 228 229 230 231 232 233 234 236 237 239 240 241 242 244 244 245 246 247 248 249 249 250 251 251 252 253 254 255 257 259 260 261 261 257 254 254 253 255 262 266 270 275 277 279 282 285 287 287 284 282 281 282 283 284 284 283 282 281 279 277 277 278 279 280 281 283 284 285 287 289 291 293 294 296 297 299 300 301 303 304 305 306 307
216 218 218 218 219 221 223 226 228 229 230 230 229 228 228 228 229 230 231 232 233 235 237 238 240 241 242 243 243 244 245 246 247 248 249 250 250 251 252 253 254 255 256 256 255 255 253 252 252 252 252 255 261 266 271 275 277 279 282 285 284 280 277 276 277 280 283 282 282 282 281 280 278 277 277 278 279 280 281 282 284 285 287 289 291 292 294 296 297 298 300 301 303 305 306 307 308
215 216 217 217 218 220 222 224 227 228 229 229 229 227 227 227 227 228 230 230 232 234 236 238 240 242 242 242 242 243 244 245 247 248 249 250 250 251 252 253 253 253 253 253 252 249 249 252 253 254 254 257 262 265 269 272 275 278 280 280 275 269 269 272 276 280 282 284 286 284 282 279 278 277 277 277 279 280 281 281 283 285 287 289 290 292 294 295 296 297 299 301 303 305 307 307 308
213 215 216 216 217 218 220 223 225 227 228 228 228 228 227 228 228 229 230 230 232 234 236 238 239 241 241 241 241 242 244 245 246 248 249 250 250 251 252 252 252 250 249 252 252 249 250 252 254 256 257 258 263 266 269 271 273 275 273 266 259 259 263 268 274 278 280 284 287 286 284 281 280 278 277 277 278 279 280 281 283 285 287 289 290 292 293 294 296 297 299 301 304 306 307 308 308
212 214 215 215 216 218 220 222 224 226 227 228 228 229 228 227 228 230 231 232 234 235 236 237 238 239 240 240 241 242 244 245 246 247 248 249 250 251 251 251 251 248 244 247 251 251 252 254 254 255 256 259 264 266 267 269 270 270 266 256 252 256 260 265 272 278 280 282 284 285 284 283 281 278 276 276 277 278 280 282 284 286 287 288 289 291 292 294 295 297 299 302 304 306 307 308 308
212 214 214 215 215 217 219 221 223 225 226 227 228 229 228 227 228 229 229 230 231 233 234 235 237 238 239 240 240 241 243 244 246 247 248 249 250 250 250 250 250 247 242 242 247 250 253 253 251 252 257 260 262 264 265 266 265 263 257 251 253 257 259 264 273 278 280 283 286 287 286 285 283 280 277 276 277 278 280 282 284 285 286 287 288 290 292 294 296 298 301 303 305 306 307 307 308
212 213 214 214 215 216 218 220 222 224 225 226 228 228 228 227 228 229 228 229 230 231 234 236 237 238 239 240 241 241 243 245 246 248 248 249 249 249 249 249 248 247 244 243 243 245 248 249 249 252 257 259 259 261 262 262 263 261 253 249 251 255 261 267 273 276 279 283 287 290 290 288 285 281 279 278 277 278 279 281 283 284 285 286 288 290 293 295 298 301 303 305 306 306 307 307 307
212 213 214 214 215 216 218 221 222 223 224 226 227 228 228 227 228 229 228 229 231 233 235 237 238 239 239 240 242 243 245 247 248 248 248 247 247 248 248 248 248 247 246 244 243 243 244 247 251 253 255 257 258 258 258 260 265 265 257 253 253 255 261 267 270 273 278 284 288 291 291 288 285 281 279 277 277 277 279 280 282 283 285 287 290 292 294 298 301 303 305 305 306 307 307 307 308
213 214 215 216 217 218 219 221 222 223 224 226 227 227 227 226 228 230 229 230 232 233 235 237 237 239 240 241 242 244 245 246 246 246 246 246 246 247 248 248 248 248 247 246 245 245 246 248 250 252 253 255 256 255 255 259 262 261 259 260 260 260 261 264 269 275 282 287 289 289 288 285 281 278 276 275 276 277 279 281 283 285 287 289 292 294 297 301 303 304 305 305 306 307 307 308 308
214 215 215 216 217 218 220 221 222 223 224 226 227 227 226 226 227 229 230 230 231 232 234 237 239 240 241 242 243 243 243 243 243 244 245 246 247 248 249 249 250 250 249 248 247 248 249 249 250 251 253 254 255 255 257 259 260 259 259 260 262 262 260 264 271 280 285 288 287 286 283 279 276 275 274 275 277 279 281 283 285 287 289 291 294 297 300 301 302 304 305 305 306 307 308 308 308
212 214 214 214 215 216 217 219 220 222 223 225 227 226 224 225 227 229 230 230 231 233 235 238 240 242 242 242 242 242 242 242 243 244 246 248 249 249 250 251 252 252 251 250 249 250 250 250 250 251 252 254 255 258 260 260 261 259 254 254 257 259 262 270 279 284 286 285 283 280 277 275 274 274 276 278 279 281 283 285 287 288 290 293 296 298 300 301 303 304 305 306 306 307 308 308 308
213 213 213 213 214 215 216 217 219 220 222 224 226 224 222 223 225 227 230 230 231 234 235 237 239 241 241 241 242 242 242 243 244 246 247 249 250 251 251 252 252 253 253 253 251 251 252 251 251 250 251 251 252 255 259 261 262 261 255 253 256 259 265 276 281 282 282 279 276 273 272 273 274 276 278 280 281 283 284 286 288 290 292 295 297 299 300 302 303 304 305 306 307 308 308 308 308
213 213 213 213 214 215 216 217 219 220 221 222 224 223 221 221 223 226 229 229 230 232 234 235 237 239 240 239 240 240 241 242 244 245 247 248 249 250 251 252 253 254 255 255 254 253 253 252 251 250 251 251 248 248 253 258 260 258 255 255 257 261 269 276 278 277 276 273 271 270 271 273 275 277 279 281 283 284 285 287 289 292 294 296 298 299 301 303 304 305 306 306 307 308 307 307 307
211 211 213 213 214 215 216 217 219 221 222 223 224 223 221 221 222 224 227 229 229 231 233 234 236 237 237 236 237 238 239 240 241 243 245 247 248 250 251 251 252 253 254 254 254 254 254 253 252 250 250 250 250 248 251 254 254 250 249 253 259 265 271 274 273 272 271 269 269 270 272 274 277 279 281 282 283 285 286 288 291 294 296 297 299 300 302 303 304 305 306 307 307 307 307 307 307
211 211 212 212 212 213 215 217 218 220 221 222 224 224 222 221 221 223 226 228 229 231 232 234 235 234 234 234 234 236 237 238 240 242 244 245 247 249 251 251 252 252 252 253 253 254 255 254 253 252 249 247 248 249 250 248 246 244 247 254 262 268 271 271 271 270 269 269 271 272 274 277 279 280 282 283 285 286 289 291 294 296 297 298 299 301 302 303 304 305 306 306 307 306 307 307 308
212 213 213 213 212 213 214 215 216 218 219 221 222 223 221 219 219 221 225 228 229 231 231 232 233 233 233 233 234 236 237 238 240 241 243 244 246 248 250 251 252 252 252 253 253 254 255 255 254 253 252 249 247 247 247 244 242 245 251 258 264 268 269 270 270 270 270 271 272 274 275 277 279 281 282 284 286 288 291 293 295 296 297 298 300 301 302 303 304 305 306 306 306 307 307 308 309
211 212 213 213 213 214 215 215 216 217 219 219 220 220 219 217 217 218 222 227 228 229 229 230 232 233 233 234 235 237 239 240 241 242 243 244 245 247 249 251 252 253 253 254 255 255 255 256 255 254 253 252 249 248 247 247 248 253 258 262 265 267 269 270 270 270 271 272 272 274 276 277 279 281 283 285 288 290 292 293 295 296 298 299 300 301 302 303 304 305 305 305 306 307 308 309 310